Other Public Products
Issued by NWS Grand Forks, ND

Home | Current Version | Previous Version | Text Only | Print | Product List | Glossary Off
Versions: 1 2 3 4 5 6 7 8 9 10 11 12 13 14 15 16 17 18 19 20 21 22 23 24 25 26 27 28 29 30 31 32 33 34 35 36 37 38 39 40 41 42 43 44 45 46 47 48 49 50

000
FPUS83 KFGF 231510
OPUFGF
PRAIRIE TO PINES WEATHER ROUNDUP
NATIONAL WEATHER SERVICE EASTERN NORTH DAKOTA/GRAND FORKS ND
1000 AM CDT WED JUL 23 2014

 **SATELLITE DATA USED TO AUGMENT SKY COVER AT AUTOMATED STATIONS**
 *****  WEATHER ACROSS EASTERN NORTH DAKOTA  *****

CITY           SKY/WX    TMP DP  RH WIND       PRES   REMARKS
GRAND FORKS    PTSUNNY   66  59  78 N5        30.30F
GRAND FORKS AF PTSUNNY   64  62  93 VRB5      30.32F
GRAND CITY NWS   N/A     66 N/A N/A NE1         N/A
BUXTON         NOT AVBL
DEVILS LAKE    PTSUNNY   64  52  63 E9        30.32S
FARGO          CLOUDY    67  59  75 NE3       30.30S
WAHPETON ARPT  MOSUNNY   72  55  56 E5        30.28F
$$

 *****  WEATHER ACROSS CENTRAL AND WESTERN NORTH DAKOTA  *****

CITY           SKY/WX    TMP DP  RH WIND       PRES   REMARKS
JAMESTOWN      LGT RAIN  66  60  81 CALM      30.31S
BISMARCK       MOSUNNY   74  60  61 SE15      30.28S
MINOT          CLOUDY    66  63  90 E13       30.27S
MINOT AFB      MOSUNNY   66  65  99 E13       30.27S
GARRISON         N/A     72  64  76 SE12      30.25F
WILLISTON      MOSUNNY   75  62  64 E6        30.22S
DICKINSON      SUNNY     71  63  75 S16       30.23S
HETTINGER      MOSUNNY   70  61  73 SE12      30.26R
$$

 *****  OTHER OBSERVATIONS NORTHEAST NORTH DAKOTA  *****

CITY           SKY/WX    TMP DP  RH WIND       PRES   REMARKS
WALHALLA         N/A     64  59  82 N6          N/A
LANGDON        FAIR      66  50  55 NE9       30.34S
CAVALIER       FAIR      63  57  82 NE8       30.33F
GRAFTON        FAIR      64  59  82 N7        30.32F
CANDO          PTSUNNY   64  54  68 E8        30.34S
FORT TOTTEN      N/A     67  60  76 E5        29.95
ROLLA          PTSUNNY   63  54  72 E7        30.36S
RUGBY          CLOUDY    64  59  82 E14G20    30.32R
 ***** THE ABOVE OBSERVATIONS ARE NON NWS ARE NOT QUALITY
        CONTROLLED AND MAY MIS-REPORT RAIN FOR SNOW...
$$

 *****  OTHER OBSERVATIONS SOUTHEAST NORTH DAKOTA *****

CITY           SKY/WX    TMP DP  RH WIND       PRES   REMARKS
COOPERSTOWN    NOT AVBL
VALLEY CITY      N/A     64  64 100 NE6         N/A
OAKES          NOT AVBL
GWINNER        SUNNY     68  57  68 CALM      30.32R
SHEYENNE NWR     N/A     70  58  65 E5        29.95S
BUFFALO        NOT AVBL
WYNDMERE       NOT AVBL
 ***** THE ABOVE OBSERVATIONS ARE NON NWS ARE NOT QUALITY
       CONTROLLED AND MAY MIS-REPORT RAIN FOR SNOW...
$$

  *****  WEATHER ACROSS NORTHERN MINNESOTA  *****

CITY           SKY/WX    TMP DP  RH WIND       PRES   REMARKS
FLAG ISLAND    PTSUNNY   64  52  63 N7        30.30S
WARROAD        NOT AVBL
ROSEAU         MOSUNNY   66  61  82 CALM      30.31S
HALLOCK        MOSUNNY   66  57  72 NE7       30.31F
THF RVR FALLS  MOSUNNY   63  57  82 NW6       30.31S
HALSTAD          N/A     69  55  62 CALM        N/A
FOSSTON        MOSUNNY   64  55  72 W3        30.31S
BAUDETTE       PTSUNNY   67  56  67 CALM      30.32R
WASKISH        NOT AVBL
CROOKSTON      MOSUNNY   66  57  72 N8        30.31F
$$
  *****  WEATHER ACROSS CENTRAL AND WEST MINNESOTA  *****

CITY           SKY/WX    TMP DP  RH WIND       PRES   REMARKS
BEMIDJI        MOSUNNY   67  56  67 N6        30.29S
PARK RAPIDS    MOSUNNY   69  52  54 N9        30.29F
WADENA         PTSUNNY   70  55  60 NE3       30.29S
DETROIT LAKES  MOSUNNY   68  57  68 NE3       30.31F
MOORHEAD       PTSUNNY   66  64  94 CALM      30.31R
FERGUS FALLS   SUNNY     72  55  56 CALM      30.29F
ELBOW LAKE     FAIR      70  58  65 NE3       30.29F
MORRIS MN      SUNNY     73  61  64 E6        30.28F
STAPLES        MOSUNNY   70  54  56 NE6       30.29S
WHEATON        MOSUNNY   70  57  64 NE5       30.30F
$$
  *****  WEATHER ELSEWHERE ACROSS MINNESOTA  *****

CITY           SKY/WX    TMP DP  RH WIND       PRES   REMARKS
DULUTH         MOSUNNY   69  53  56 N8        30.25F
INTRNTL FALLS  SUNNY     66  51  58 NE8       30.30S
ELY            MOSUNNY   63  54  72 NW3       30.27F
CLOQUET        MOSUNNY   68  54  60 N6        30.26S
BRAINERD       SUNNY     68  53  58 N7        30.27F
HIBBING        MOSUNNY   70  53  54 N9        30.28F
ALEXANDRIA     SUNNY     71  55  56 VRB3      30.31R
SAINT CLOUD    SUNNY     76  56  49 VRB6      30.26F
MINNEAPOLIS    MOSUNNY   75  54  47 VRB5      30.25F
$$

  *****  WEATHER ACROSS SOUTH DAKOTA  *****

CITY           SKY/WX    TMP DP  RH WIND       PRES   REMARKS
SIOUX FALLS    MOSUNNY   72  56  57 E8        30.29S
BROOKINGS      NOT AVBL
WATERTOWN      SUNNY     72  53  51 E6        30.30S
HURON          SUNNY     72  59  63 S7        30.30R
SISSETON         N/A     69  60  73 CALM      30.29S
ABERDEEN       SUNNY     70  58  65 SE8       30.30S
MITCHELL       SUNNY     72  59  63 SE8       30.30S
PIERRE         MOSUNNY   75  59  57 E18       30.24F
MOBRIDGE       SUNNY     72  60  66 SE17G24   30.25S
RAPID CITY     MOSUNNY   75  59  57 SW14      30.24S
$$

  *****  SOME WEATHER IN NEARBY STATES *****

CITY           SKY/WX    TMP DP  RH WIND       PRES   REMARKS
GLASGOW MT     MOSUNNY   74  61  63 E20       30.16S
GREAT FALLS MT PTSUNNY   65  59  81 S7        30.16F
CHEYENNE WY    CLOUDY    65  60  84 SE8       30.43S
SCOTTSBLUFF NE CLOUDY    72  60  66 SE14      30.33S
OMAHA NE       MOSUNNY   74  60  61 N7        30.24S
DES MOINES IA  PTSUNNY   77  63  61 NE6       30.20S
DAVENPORT IA   SUNNY     73  62  68 NE10      30.19R
CHICAGO IL     MOSUNNY   69  53  56 NE22      30.16R
EAU CLAIRE WI  SUNNY     73  58  59 NE5       30.22F
LA CROSSE WI   SUNNY     74  58  57 N5        30.23S
$$

  *****  SOME NATIONAL WEATHER *****

CITY           SKY/WX    TMP DP  RH WIND       PRES   REMARKS
LA GUARDIA NY  MOSUNNY   83  68  60 SW8       29.93F
RALEIGH NC     PTSUNNY   85  73  67 VRB5      30.06F HX  91
ATLANTA GA     PTSUNNY   81  70  69 CALM      30.11F
NEW ORLEANS LA TSTM      76  70  82 NE7       30.05R
OKLAHOMA CITY  SUNNY     85  72  65 SW7       30.15S HX  91
ALBUQUERQUE NM MOSUNNY   76  57  51 NW5       30.38R
SALT LAKE CITY MOSUNNY   83  42  23 SE10      30.13R
LOS ANGELES CA MOSUNNY   73  60  63 CALM      30.01S
BOISE ID       MOSUNNY   69  55  60 CALM      30.08R
SEATTLE WA     LGT RAIN  60  59  96 SE6       29.99F
$$

*** WEATHER ACROSS MANITOBA...SASKATCHEWAN AND ONTARIO ***
                ***ONTARIO***

CITY           SKY/WX    TMP DP  RH WIND       PRES   REMARKS
GERALDTON      CLOUDY    61  50  67 NW3       30.21S
THUNDER BAY    PTSUNNY   66  54  63 VRB3      30.24R
SIOUX LOOKOUT  PTSUNNY   64  46  52 NW5       30.29S
TORONTO        CLOUDY    68  59  73 N15G22    29.93R
BIG TROUT LK   SUNNY     66  50  55 NW15G22   30.12S
PICKLE LAKE    PTSUNNY   64  46  52 NW7       30.24S
DRYDEN         CLOUDY    63  46  55 W3        30.30S
KENORA         PTSUNNY   64  48  55 N6        30.32F
$$
                *** MANITOBA***

CITY           SKY/WX    TMP DP  RH WIND       PRES   REMARKS
BRANDON        MOSUNNY   66  52  59 E9        30.35S
DAUPHIN        SUNNY     66  55  68 CALM      30.34S
ISLAND LAKE    MOSUNNY   68  54  60 W6        30.26F
PILOT MOUND      N/A     64  50  59 NE9         N/A
THE PAS        MOSUNNY   72  55  56 CALM      30.29S
THOMPSON       SUNNY     72  54  53 W9        30.24F
WINNIPEG       MOSUNNY   66  54  63 N5        30.34S
LYNN LAKE      SUNNY     73  48  40 W8        30.22F
CHURCHILL      PTSUNNY   61  54  77 NW14      30.06R SMOKE
GILLAM         PTSUNNY   66  55  68 W16       30.14F
$$
                ***SASKATCHEWAN***

CITY           SKY/WX    TMP DP  RH WIND       PRES   REMARKS
ESTEVAN        PTSUNNY   66  59  77 E16       30.28S
KINDERSLEY     PTSUNNY   68  61  77 SE14      30.14F
LLOYDMINSTER   PTSUNNY   66  59  77 SE15      30.10S
PRINCE ALBERT  CLOUDY    68  57  68 S7        30.25S
REGINA         SUNNY     70  59  68 SE15      30.26F



USA.gov is the U.S. government's official web portal to all federal, state and local government web resources and services.